WA2GUG Weather Reports


Display with metric or nautical units.
time (UTC)temp
F
wind
direction
speed
MPH
gust
MPH
rain 1hr
in
rain 24hr
in
rain mn
in
humidity
%
barometer
mb
20180723014606 75 255 2.0 7.0 0.00 0.00 0.00 99 1015.0
20180723014106 75 82 1.0 2.0 0.00 0.00 0.00 99 1015.0
20180723013606 75 315 1.0 2.0 0.00 0.00 0.00 99 1015.0
20180723013106 75 123 1.0 3.0 0.00 0.00 0.00 99 1014.0
20180723012606 75 219 1.0 3.0 0.00 0.00 0.00 99 1014.0
20180723012106 75 22 1.0 3.0 0.00 0.00 0.00 99 1014.0
20180723011106 75 258 1.0 4.0 0.00 0.00 0.00 99 1015.0
20180723010606 75 112 1.0 3.0 0.00 0.00 0.00 96 1015.0
20180723010106 75 292 0.0 2.0 0.00 0.00 0.00 99 1015.0
20180723005606 75 258 1.0 3.0 0.00 0.00 0.00 99 1015.0
20180723005106 75 337 1.0 4.0 0.00 0.00 0.00 99 1015.0
20180723004606 75 1.0 4.0 0.00 0.00 0.00 99 1014.0
20180723004106 75 1.0 3.0 0.00 0.00 0.00 99 1015.0
20180723003606 75 281 1.0 3.0 0.00 0.00 0.00 99 1015.0
20180723002106 76 168 1.0 2.0 0.00 0.00 0.00 99 1251.0
20180723001606 76 7 1.0 2.0 0.00 0.00 0.00 99 1015.0
20180723001106 77 22 1.0 4.0 0.00 0.00 0.00 99 1015.0
20180723000106 77 202 2.0 3.0 0.00 0.00 0.00 98 1015.0
20180722235105 77 236 1.0 2.0 0.00 0.00 0.00 99 1014.0
20180722234605 78 165 0.0 2.0 0.00 0.00 0.00 99 1015.0
20180722234105 78 225 1.0 2.0 0.00 0.00 0.00 1014.0
20180722233105 80 303 1.0 3.0 0.00 0.00 0.00 99 1013.0
20180722232606 81 180 0.0 1.0 0.00 0.00 0.00 98 1014.0
20180722232105 82 90 0.0 1.0 0.00 0.00 0.00 97 1014.0
20180722231605 83 240 0.0 1.0 0.00 0.00 0.00 95 1014.0
20180722231106 82 163 1.0 3.0 0.00 0.00 0.00 93 1014.0
20180722230605 83 172 1.0 3.0 0.00 0.00 0.00 91 1014.0
20180722230106 83 67 0.0 3.0 0.00 0.00 0.00 92 1013.0
20180722225605 85 52 1.0 3.0 0.00 0.00 0.00 91 1014.0
20180722225105 85 75 1.0 3.0 0.00 0.00 0.00 77 1014.0
20180722222606 81 303 1.0 3.0 0.00 0.00 0.00 97 1014.0
20180722222105 82 274 1.0 2.0 0.00 0.00 0.00 98 1013.0
20180722221605 82 320 0.0 2.0 0.00 0.00 0.00 92 1013.0
20180722221105 83 127 1.0 2.0 0.00 0.00 0.00 92 1014.0
20180722220605 85 22 0.0 3.0 0.00 0.00 0.00 95 1013.1
20180722220105 88 45 1.0 3.0 0.00 0.00 0.00 89 1014.0
20180722215605 90 322 1.0 2.0 0.00 0.00 0.00 99 1013.0
20180722215105 90 67 0.0 2.0 0.00 0.00 0.00 84 1013.0
20180722214605 91 191 1.0 2.0 0.00 0.00 0.00 83 1014.0
20180722214105 89 97 1.0 99.0 0.00 0.00 0.00 93 1013.1
20180722213605 85 180 199.0 99.0 0.00 0.00 0.00 94 1014.0
20180722213105 84 270 2.0 6.0 0.00 0.00 0.00 94 1014.0
20180722212605 95 3.0 6.0 0.00 0.00 0.00 77 1013.1
20180722212105 101 2.0 6.0 0.00 0.00 0.00 73 1014.0
20180722211105 100 97 2.0 6.0 0.00 0.00 0.00 66 1014.0
20180722210605 101 217 1.0 99.0 0.00 0.00 0.00 75 1014.0
20180722210105 100 262 299.0 99.0 0.00 0.00 0.00 91 1014.0
20180722205605 100 240 2.0 4.0 0.00 0.00 0.00 84 1013.1
20180722205105 100 292 2.0 6.0 0.00 0.00 0.00 72 1014.0
20180722204105 99 225 1.0 7.0 0.00 0.00 0.00 71 1014.0
20180722203105 99 263 2.0 5.0 0.00 0.00 0.00 73 1014.0
20180722202606 101 270 1.0 99.0 0.00 0.00 0.00 73 1014.0
20180722202105 101 238 299.0 99.0 0.00 0.00 0.00 93 1014.0
20180722201606 101 292 299.0 99.0 0.00 0.00 0.00 71 1013.0
20180722201105 99 202 2.0 99.0 0.00 0.00 0.00 79 1014.0
20180722200605 97 241 299.0 99.0 0.00 0.00 0.00 88 1014.0
20180722200105 97 90 2.0 4.0 0.00 0.00 0.00 76 1014.0
20180722195605 98 217 2.0 4.0 0.00 0.00 0.00 1014.0
20180722195105 97 22 2.0 99.0 0.00 0.00 0.00 69 1014.0
20180722194605 96 247 299.0 99.0 0.00 0.00 0.00 85 1014.0
20180722194105 95 240 1.0 3.0 0.00 0.00 0.00 69 1014.0
20180722193605 90 225 1.0 5.0 0.00 0.00 0.00 87 1014.0
20180722193105 90 112 1.0 5.0 0.00 0.00 0.00 91 1014.0
20180722192605 91 90 1.0 3.0 0.00 0.00 0.00 1014.0
20180722192105 92 220 2.0 5.0 0.00 0.00 0.00 88 1014.0
20180722191105 96 250 1.0 3.0 0.00 0.00 0.00 83 1014.0
20180722190605 92 247 2.0 3.0 0.00 0.00 0.00 77 1013.0
20180722190106 96 247 1.0 9.0 0.00 0.00 0.00 88 1013.0
20180722185605 96 202 3.0 9.0 0.00 0.00 0.00 85 1016.0
20180722185105 96 337 2.0 7.0 0.00 0.00 0.00 90 1014.0
20180722184605 96 232 3.0 7.0 0.00 0.00 0.00 83 1014.0
20180722184105 94 82 2.0 6.0 0.00 0.00 0.00 79 1014.0
20180722183605 95 33 2.0 4.0 0.00 0.00 0.00 80 1013.0
20180722183105 91 78 1.0 6.0 0.00 0.00 0.00 79 1013.0
20180722182605 90 210 2.0 6.0 0.00 0.00 0.00 78 1014.0
20180722182105 93 232 2.0 7.0 0.00 0.00 0.00 75 1014.0
20180722181605 93 67 2.0 7.0 0.00 0.00 0.00 88 1011.0
20180722180605 88 112 3.0 8.0 0.00 0.00 0.00 87 1014.0
20180722180105 86 292 2.0 6.0 0.00 0.00 0.00 94 1013.0
20180722175605 84 236 2.0 9.0 0.00 0.00 0.00 96 1014.0
20180722174605 85 22 3.0 99.0 0.00 0.00 0.00 95 1013.0
20180722174105 84 78 75.0 99.0 0.00 0.00 0.00 1013.0
20180722173605 84 157 2.0 5.0 0.00 0.00 0.00 1013.0
20180722173105 83 225 3.0 99.0 0.00 0.00 0.00 92 1013.0
20180722172605 83 67 76.0 99.0 0.00 0.00 0.00 96 1013.0
20180722172105 83 247 3.0 9.0 0.00 0.00 0.00 97 1013.0
20180722171605 84 180 3.0 9.0 0.00 0.00 0.00 94 1013.0
20180722171105 87 67 2.0 4.0 0.00 0.00 0.00 94 1013.0
20180722170605 84 202 2.0 5.0 0.00 0.00 0.00 97 1012.0
20180722170105 80 2.0 7.0 0.00 0.00 0.00 99 1013.0
20180722165605 76 258 3.0 7.0 0.00 0.00 0.00 99 1013.0
20180722165105 77 0 2.0 5.0 0.00 0.00 0.00 99 1013.0
20180722164605 76 135 3.0 5.0 0.00 0.00 0.00 91 1013.0
20180722164105 76 225 2.0 4.0 0.00 0.00 0.00 99 1012.0
20180722163605 77 337 2.0 5.0 0.00 0.00 0.00 99 1013.0
20180722163105 80 112 2.0 5.0 0.00 0.00 0.00 99 1012.0
20180722162606 84 112 2.0 5.0 0.00 0.00 0.00 97 1013.0
20180722162105 83 258 3.0 6.0 0.00 0.00 0.00 98 1013.0
20180722161605 81 90 3.0 7.0 0.00 0.00 0.00 99 1013.0
20180722161105 79 225 2.0 7.0 0.00 0.00 0.00 99 1012.0
20180722160605 82 67 2.0 5.0 0.00 0.00 0.00 99 1013.0
20180722160105 83 240 1.0 3.0 0.00 0.00 0.00 99 1015.0
20180722155605 84 60 1.0 3.0 0.00 0.00 0.00 1013.0
20180722155105 84 326 1.0 3.0 0.00 0.00 0.00 98 1013.0
20180722154605 82 202 1.0 6.0 0.00 0.00 0.00 99 1012.0
20180722154123 81 225 1.0 6.0 0.00 0.00 0.00 99 1011.0
20180722153605 80 112 1.0 3.0 0.00 0.00 0.00 99 1013.0
20180722153105 76 168 0.0 1.0 0.00 0.00 0.00 99 1012.0
20180722152605 74 18 0.0 1.0 0.00 0.00 0.00 99 1013.0
20180722152105 71 22 0.0 1.0 0.00 0.00 0.00 99 1013.0
20180722151605 70 22 0.0 1.0 0.00 0.00 0.00 99 1013.0
20180722151105 69 22 0.0 1.0 0.00 0.00 0.00 99 1013.0
20180722150605 69 22 0.0 1.0 0.00 0.00 0.00 99 1013.0
20180722150105 69 22 0.0 1.0 0.00 0.00 0.00 99 1013.0
20180722145605 68 22 0.0 1.0 0.00 0.00 0.00 99 1016.0
20180722145105 67 22 0.0 3.0 0.00 0.00 0.00 99 1013.0
20180722144605 68 0 1.0 3.0 0.00 0.00 0.00 99 1013.0
20180722144105 68 1.0 2.0 0.00 0.00 0.00 99 1013.0
20180722143105 68 14 0.0 2.0 0.00 0.00 0.00 99 1012.0
20180722142605 67 22 0.0 1.0 0.00 0.00 0.00 99 1012.0
20180722142105 68 7 0.0 1.0 0.00 0.00 0.00 99 1012.0
20180722141605 68 22 0.0 1.0 0.00 0.00 0.00 99 1012.0
20180722141105 67 22 0.0 1.0 0.00 0.00 0.00 99 1012.0
20180722140605 67 22 0.0 1.0 0.00 0.00 0.00 99 1012.0
20180722140105 67 22 0.0 2.0 0.00 0.00 0.00 99 1013.0
20180722135605 66 0.0 2.0 0.00 0.00 0.00 99 1013.0
20180722135105 65 16 0.0 1.0 0.00 0.00 0.00 99 1011.0
20180722134605 65 0.0 1.0 0.00 0.00 0.00 1013.0
20180722134105 65 22 0.0 2.0 0.00 0.00 0.00 99 1013.0
20180722133605 65 22 1.0 2.0 0.00 0.00 0.00 99 1013.0
20180722133105 65 22 0.0 2.0 0.00 0.00 0.00 99 1013.0
20180722132605 65 15 0.0 0.0 0.00 0.00 0.00 1012.0
20180722132105 65 0.0 0.0 0.00 0.00 0.00 1012.0
20180722131605 65 22 0.0 0.0 0.00 0.00 0.00 99 1013.0
20180722131105 65 22 0.0 0.0 0.00 0.00 0.00 99 1013.0
20180722130605 64 22 0.0 0.0 0.00 0.00 0.00 99 1013.0
20180722130105 64 22 0.0 0.0 0.00 0.00 0.00 1013.0
20180722125605 64 0.0 0.0 0.00 0.00 0.00 99 1013.0
20180722125105 64 0.0 0.0 0.00 0.00 0.00 99 1012.0
20180722124605 64 0.0 0.0 0.00 0.00 0.00 99 1012.0
20180722124105 64 22 0.0 0.0 0.00 0.00 0.00 99 1013.0
20180722123605 64 22 0.0 0.0 0.00 0.00 0.00 99 1012.0
20180722123105 64 22 0.0 0.0 0.00 0.00 0.00 1012.0
20180722122605 64 22 0.0 0.0 0.00 0.00 0.00 99 1012.0
20180722122104 64 22 0.0 0.0 0.00 0.00 0.00 99 1013.0
20180722121605 64 22 0.0 0.0 0.00 0.00 0.00 99 1012.0
20180722121104 64 22 0.0 0.0 0.00 0.00 0.00 1012.0
20180722120605 64 22 0.0 0.0 0.00 0.00 0.00 99 1012.0
20180722120104 63 22 0.0 0.0 0.00 0.00 0.00 99 1013.0
20180722115607 63 0.0 0.0 0.00 0.00 0.00 99 1013.0
20180722115104 63 22 0.0 0.0 0.00 0.00 0.00 99 1012.0
20180722114604 63 22 0.0 0.0 0.00 0.00 0.00 99 1013.0
20180722114104 63 0.0 0.0 0.00 0.00 0.00 99 1013.0
20180722113604 63 0.0 0.0 0.00 0.00 0.00 99 1012.0
20180722113105 63 22 0.0 99.0 0.00 0.00 0.00 1012.0
20180722112605 63 22 99.0 99.0 0.00 0.00 0.00 1012.0
20180722112105 63 22 99.0 99.0 0.00 0.00 0.00 99 1011.0
20180722111604 63 0.0 0.0 0.00 0.00 0.00 99 1012.0
20180722111105 63 22 0.0 0.0 0.00 0.00 0.00 99 1325.0
20180722110604 63 22 0.0 0.0 0.00 0.00 0.00 99 1012.0
20180722110104 63 22 0.0 0.0 0.00 0.00 0.00 99 1012.0
20180722105604 63 22 0.0 0.0 0.00 0.00 0.00 99 1012.0
20180722105104 63 22 0.0 0.0 0.00 0.00 0.00 1012.0
20180722104605 63 22 0.0 0.0 0.00 0.00 0.00 99 1011.0
20180722104104 63 0.0 0.0 0.00 0.00 0.00 99 1012.0
20180722103605 63 22 0.0 0.0 0.00 0.00 0.00 1012.0
20180722103105 63 22 0.0 99.0 0.00 0.00 0.00 99 1012.0
20180722102605 63 22 99.0 99.0 0.00 0.00 0.00 99 1012.0
20180722102104 63 22 0.0 0.0 0.00 0.00 0.00 1224.0
20180722101605 63 0.0 0.0 0.00 0.00 0.00 99 1012.0
20180722101104 63 22 0.0 0.0 0.00 0.00 0.00 99 1012.0
20180722100605 63 22 0.0 0.0 0.00 0.00 0.00 99 1012.0
20180722100104 63 22 0.0 0.0 0.00 0.00 0.00 99 1012.0
20180722095604 63 22 0.0 0.0 0.00 0.00 0.00 99 1012.0
20180722095104 63 22 0.0 0.0 0.00 0.00 0.00 1012.0
20180722094604 63 22 0.0 0.0 0.00 0.00 0.00 1012.0
20180722094104 63 22 0.0 0.0 0.00 0.00 0.00 1013.0
20180722093604 63 0.0 0.0 0.00 0.00 0.00 1013.0
20180722093104 63 22 0.0 0.0 0.00 0.00 0.00 99 1012.0
20180722092605 63 22 0.0 99.0 0.00 0.00 0.00 99 1012.0
20180722092105 63 22 99.0 99.0 0.00 0.00 0.00 99 1013.0
20180722091604 62 22 0.0 0.0 0.00 0.00 0.00 99 1013.0
20180722091105 63 22 0.0 0.0 0.00 0.00 0.00 99 1012.0
20180722090604 63 22 0.0 0.0 0.00 0.00 0.00 1013.0
20180722090106 63 22 0.0 0.0 0.00 0.00 0.00 99 1012.0
20180722085604 63 22 0.0 99.0 0.00 0.00 0.00 99 1013.0
20180722084604 63 22 0.0 0.0 0.00 0.00 0.00 99 1012.0
20180722084104 63 22 0.0 0.0 0.00 0.00 0.00 99 1013.0
20180722083604 63 0.0 0.0 0.00 0.00 0.00 99 1013.0
20180722083105 63 22 0.0 0.0 0.00 0.00 0.00 99 1013.0
20180722082605 63 22 0.0 0.0 0.00 0.00 0.00 99 1012.0
20180722082104 63 22 0.0 99.0 0.00 0.00 0.00 99 1013.0
20180722081605 63 22 99.0 99.0 0.00 0.00 0.00 99 1013.0
20180722081104 63 22 0.0 0.0 0.00 0.00 0.00 99 1016.0
20180722080604 63 22 0.0 0.0 0.00 0.00 0.00 99 1013.0
20180722080105 63 0.0 0.0 0.00 0.00 0.00 99 1013.0
20180722075606 63 22 0.0 99.0 0.00 0.00 0.00 99 1013.0
20180722075104 63 22 99.0 99.0 0.00 0.00 0.00 1013.0
20180722074604 63 22 0.0 0.0 0.00 0.00 0.00 99 1013.0
20180722074104 63 22 0.0 0.0 0.00 0.00 0.00 99 1013.0
20180722073604 64 22 0.0 0.0 0.00 0.00 0.00 99 1014.0
20180722073104 64 22 0.0 0.0 0.00 0.00 0.00 99 1014.0
20180722072604 64 22 0.0 0.0 0.00 0.00 0.00 99 1014.0
20180722072104 64 22 0.0 0.0 0.00 0.00 0.00 99 1014.0
20180722071604 64 22 0.0 0.0 0.00 0.00 0.00 99 1014.0
20180722071104 64 22 0.0 0.0 0.00 0.00 0.00 99 1014.0
20180722070604 64 22 0.0 0.0 0.00 0.00 0.00 99 1014.0
20180722070106 64 22 0.0 0.0 0.00 0.00 0.00 1014.0
20180722065604 64 22 0.0 0.0 0.00 0.00 0.00 99 1014.0
20180722065104 64 22 0.0 0.0 0.00 0.00 0.00 99 1066.0
20180722064604 64 22 0.0 0.0 0.00 0.00 0.00 99 1014.0
20180722064104 64 22 0.0 99.0 0.00 0.00 0.00 99 1014.0
20180722063604 64 22 99.0 99.0 0.00 0.00 0.00 99 1014.0
20180722063104 64 0.0 0.0 0.00 0.00 0.00 99 1013.0
20180722062604 64 22 0.0 0.0 0.00 0.00 0.00 99 1011.0
20180722062104 64 22 0.0 0.0 0.00 0.00 0.00 83 1014.0
20180722061604 64 22 0.0 0.0 0.00 0.00 0.00 99 1013.0
20180722061104 64 22 0.0 0.0 0.00 0.00 0.00 99 1017.0
20180722060604 64 22 0.0 0.0 0.00 0.00 0.00 99 1013.0
20180722060104 64 22 0.0 0.0 0.00 0.00 0.00 1014.0
20180722055604 64 22 0.0 0.0 0.00 0.00 0.00 99 1014.0
20180722055104 64 22 0.0 0.0 0.00 0.00 0.00 89 1237.0
20180722054604 64 0.0 0.0 0.00 0.00 0.00 99 1014.0
20180722054104 64 22 0.0 0.0 0.00 0.00 0.00 99 1014.0
20180722053604 64 0.0 0.0 0.00 0.00 0.00 82 1014.0
20180722052604 64 0.0 99.0 0.00 0.00 0.00 99 1014.0
20180722052104 64 22 99.0 99.0 0.00 0.00 0.00 99 1013.0
20180722051604 64 22 0.0 0.0 0.00 0.00 0.00 99 1014.0
20180722051104 64 22 0.0 0.0 0.00 0.00 0.00 99 1014.0
20180722050604 64 22 0.0 0.0 0.00 0.00 0.00 99 1014.0
20180722050104 64 22 0.0 0.0 0.00 0.00 0.00 99 1014.0
20180722045604 64 22 0.0 0.0 0.00 0.00 0.00 99 1014.0
20180722045104 64 22 0.0 0.0 0.00 0.00 0.00 99 1013.0
20180722044604 64 22 0.0 0.0 0.00 0.00 0.00 99 1014.0
20180722044105 64 22 0.0 0.0 0.00 0.00 0.00 99 1014.0
20180722043604 64 22 0.0 0.0 0.00 0.00 0.00 99 1014.0
20180722043104 65 22 0.0 0.0 0.00 0.00 0.00 99 1012.0
20180722042605 65 22 0.0 0.0 0.00 0.00 0.00 99 1014.0
20180722042104 65 22 0.0 0.0 0.00 0.00 0.00 99 1014.0
20180722041604 65 22 0.0 0.0 0.00 0.00 0.00 99 1014.0
20180722041104 65 22 0.0 0.0 0.00 0.00 0.00 99 1014.0
20180722040604 66 22 0.0 0.0 0.00 0.00 0.00 99 1014.1
20180722040104 66 22 0.0 0.0 0.00 0.00 0.00 99 1015.0
20180722035604 66 22 0.0 0.0 0.00 0.00 0.00 99 1014.0
20180722035104 66 22 0.0 0.0 0.00 0.00 0.00 99 1014.0
20180722034604 67 22 0.0 0.0 0.00 0.00 0.00 99 1015.0
20180722034104 67 22 0.0 0.0 0.00 0.00 0.00 99 1015.0
20180722033604 67 22 0.0 0.0 0.00 0.00 0.00 99 1015.0
20180722033104 67 22 0.0 0.0 0.00 0.00 0.00 97 1014.1
20180722032604 67 22 0.0 0.0 0.00 0.00 0.00 97 1015.0
20180722032104 67 22 0.0 0.0 0.00 0.00 0.00 97 1014.1
20180722031604 67 22 0.0 0.0 0.00 0.00 0.00 99 1015.0
20180722030604 67 22 0.0 0.0 0.00 0.00 0.00 98 1015.0
20180722030104 67 22 0.0 0.0 0.00 0.00 0.00 98 1015.0
20180722025604 67 22 0.0 0.0 0.00 0.00 0.00 97 1015.0
20180722025104 67 22 0.0 0.0 0.00 0.00 0.00 98 1014.1
20180722024604 67 0 0.0 0.0 0.00 0.00 0.00 89 1015.0
20180722024104 67 0 0.0 0.0 0.00 0.00 0.00 98 1015.0
20180722023604 67 0 0.0 0.0 0.00 0.00 0.00 98 1015.0
20180722023104 66 0 0.0 0.0 0.00 0.00 0.00 99 1015.0
20180722022604 66 5 0.0 0.0 0.00 0.00 0.00 98 1013.1
20180722022104 67 337 0.0 0.0 0.00 0.00 0.00 99 1015.0
20180722021604 67 337 0.0 0.0 0.00 0.00 0.00 97 1015.0
20180722021104 67 22 0.0 0.0 0.00 0.00 0.00 99 1014.0
20180722020604 67 315 0.0 0.0 0.00 0.00 0.00 97 1015.0
20180722015604 67 337 0.0 0.0 0.00 0.00 0.00 99 1015.0
20180722015104 66 292 0.0 0.0 0.00 0.00 0.00 1015.0